GW4935 Weather Reports


time (UTC)temp
C
wind
direction
speed
KPH
gust
KPH
rain 1hr
cm
rain 24hr
cm
rain mn
cm
humidity
%
barometer
mb
20260504081604 11 186 6.4 11.3 0.00 0.00 0.00 73 1012.3
20260504081042 11 196 4.8 9.7 0.00 0.00 0.00 73 1012.4
20260504080547 11 194 6.4 11.3 0.00 0.00 0.00 73 1012.3
20260504050544 9 0 0.0 0.0 0.00 0.00 0.00 72 1013.9
20260504045543 11 0 0.0 3.2 0.00 0.00 0.00 67 1014.2
20260504045042 11 0 0.0 3.2 0.00 0.00 0.00 65 1014.2
20260504044557 11 0 0.0 0.0 0.00 0.00 0.00 65 1014.3
20260504044043 11 0 0.0 0.0 0.00 0.00 0.00 65 1014.3
20260504043543 11 0 0.0 3.2 0.00 0.00 0.00 65 1014.3
20260504043056 11 0 0.0 3.2 0.00 0.00 0.00 65 1014.3
20260504042544 11 0 0.0 6.4 0.00 0.00 0.00 65 1014.3
20260504042041 11 0 0.0 6.4 0.00 0.00 0.00 66 1014.3
20260504041558 12 185 3.2 9.7 0.00 0.00 0.00 65 1014.3
20260504041044 12 204 3.2 9.7 0.00 0.00 0.00 63 1014.1
20260504040544 12 216 4.8 14.5 0.00 0.00 0.00 63 1014.2
20260504035544 12 206 6.4 12.9 0.00 0.00 0.00 62 1014.0
20260504035044 12 198 4.8 16.1 0.00 0.00 0.00 62 1014.0
20260504034557 13 207 8.0 17.7 0.00 0.00 0.00 61 1013.9
20260504034045 13 200 8.0 17.7 0.00 0.00 0.00 60 1013.9
20260504033543 13 213 9.7 19.3 0.00 0.00 0.00 60 1013.9
20260504033051 13 197 9.7 17.7 0.00 0.00 0.00 60 1013.8
20260504032543 13 186 11.3 17.7 0.00 0.00 0.00 61 1013.7
20260504032044 12 201 11.3 17.7 0.00 0.00 0.00 62 1013.8
20260504031553 12 211 11.3 17.7 0.00 0.00 0.00 63 1013.8
20260504031042 12 193 11.3 17.7 0.00 0.00 0.00 65 1013.9
20260504030542 11 194 9.7 14.5 0.00 0.00 0.00 68 1014.0
20260504030055 11 193 8.0 12.9 0.00 0.00 0.00 69 1014.0
20260504025544 11 190 6.4 9.7 0.00 0.00 0.00 71 1014.0
20260504025044 10 167 6.4 9.7 0.00 0.00 0.00 73 1014.1
20260504024614 10 188 4.8 8.0 0.00 0.00 0.00 75 1014.2
20260504024047 9 191 3.2 6.4 0.00 0.00 0.00 76 1014.2
20260504023543 8 182 4.8 4.8 0.00 0.00 0.00 76 1014.3
20260504023054 9 191 4.8 4.8 0.00 0.00 0.00 75 1014.3
20260504022543 10 202 3.2 4.8 0.00 0.00 0.00 74 1014.4
20260504022044 11 205 3.2 3.2 0.00 0.00 0.00 70 1014.5
20260504021556 11 205 0.0 3.2 0.00 0.00 0.00 69 1014.5
20260504021043 11 0 0.0 1.6 0.00 0.00 0.00 70 1014.6
20260504020543 11 0 1.6 3.2 0.00 0.00 0.00 71 1014.5
20260504020055 11 223 1.6 3.2 0.00 0.00 0.00 69 1014.6
20260504015541 12 0 0.0 0.0 0.00 0.00 0.00 64 1014.6
20260504015043 12 0 0.0 0.0 0.00 0.00 0.00 61 1014.6
20260504014603 13 0 0.0 0.0 0.00 0.00 0.00 59 1014.6
20260504014042 13 0 0.0 0.0 0.00 0.00 0.00 59 1014.6
20260504013543 13 0 0.0 0.0 0.00 0.00 0.00 61 1014.6
20260504013054 12 0 0.0 0.0 0.00 0.00 0.00 62 1014.5
20260504012546 12 0 0.0 0.0 0.00 0.00 0.00 62 1014.3
20260504012043 13 0 0.0 0.0 0.00 0.00 0.00 60 1014.2
20260504011551 13 0 0.0 0.0 0.00 0.00 0.00 59 1014.2
20260504011042 13 0 0.0 0.0 0.00 0.00 0.00 58 1014.2
20260504010541 13 0 0.0 0.0 0.00 0.00 0.00 58 1014.2
20260504010055 13 0 0.0 1.6 0.00 0.00 0.00 59 1014.2
20260504005542 13 0 0.0 1.6 0.00 0.00 0.00 60 1014.2
20260504005044 13 0 0.0 3.2 0.00 0.00 0.00 62 1014.1
20260504004551 13 0 1.6 4.8 0.00 0.00 0.00 62 1013.9
20260504004044 13 360 3.2 9.7 0.00 0.00 0.00 61 1013.9
20260504003542 13 360 4.8 9.7 0.00 0.00 0.00 58 1014.0
20260504003057 14 360 3.2 8.0 0.00 0.00 0.00 57 1014.1
20260504002543 15 360 3.2 8.0 0.00 0.00 0.00 55 1014.1
20260504002044 15 360 4.8 9.7 0.00 0.00 0.00 55 1014.1
20260504001551 15 192 4.8 9.7 0.00 0.00 0.00 54 1014.1
20260504001043 15 198 4.8 9.7 0.00 0.00 0.00 52 1014.1
20260504000543 16 205 4.8 9.7 0.00 0.00 0.00 52 1014.2
20260504000138 16 190 4.8 9.7 0.00 0.00 0.00 49 1014.3
20260503235543 16 180 4.8 11.3 0.00 0.00 0.00 48 1014.2
20260503235043 17 198 4.8 14.5 0.00 0.00 0.00 48 1014.3
20260503234600 17 184 9.7 14.5 0.00 0.00 0.00 43 1014.3
20260503234047 17 177 6.4 14.5 0.00 0.00 0.00 43 1014.4
20260503233542 17 207 8.0 17.7 0.00 0.00 0.00 43 1014.3
20260503233053 17 190 9.7 17.7 0.00 0.00 0.00 43 1014.3
20260503232543 18 213 8.0 16.1 0.00 0.00 0.00 45 1014.3
20260503232043 18 192 9.7 17.7 0.00 0.00 0.00 44 1014.4
20260503231552 18 207 11.3 19.3 0.00 0.00 0.00 44 1014.5
20260503231044 18 219 12.9 19.3 0.00 0.00 0.00 44 1014.6
20260503230544 18 201 8.0 17.7 0.00 0.00 0.00 43 1014.8
20260503230051 18 209 9.7 19.3 0.00 0.00 0.00 44 1014.9
20260503225547 18 242 11.3 19.3 0.00 0.00 0.00 44 1015.1
20260503225043 18 186 4.8 16.1 0.00 0.00 0.00 41 1015.2
20260503224554 18 191 9.7 17.7 0.00 0.00 0.00 41 1015.3
20260503224041 18 251 9.7 19.3 0.00 0.00 0.00 39 1015.3
20260503223542 18 261 8.0 17.7 0.00 0.00 0.00 40 1015.2
20260503223050 18 182 8.0 16.1 0.00 0.00 0.00 42 1015.2
20260503222543 18 169 6.4 22.5 0.00 0.00 0.00 41 1015.3
20260503222044 18 252 11.3 22.5 0.00 0.00 0.00 42 1015.4
20260503221556 18 246 8.0 19.3 0.00 0.00 0.00 42 1015.5
20260503221044 18 207 11.3 19.3 0.00 0.00 0.00 41 1015.6
20260503220544 19 221 11.3 19.3 0.00 0.00 0.00 41 1015.6
20260503220055 18 283 6.4 19.3 0.00 0.00 0.00 38 1015.6
20260503215544 19 204 11.3 19.3 0.00 0.00 0.00 39 1015.6
20260503215043 18 201 12.9 19.3 0.00 0.00 0.00 40 1015.6
20260503214551 18 213 8.0 19.3 0.00 0.00 0.00 39 1015.7
20260503214045 19 275 9.7 24.1 0.00 0.00 0.00 38 1015.8
20260503213542 19 245 14.5 24.1 0.00 0.00 0.00 37 1015.8
20260503213051 19 205 6.4 20.9 0.00 0.00 0.00 41 1015.9
20260503212546 19 240 9.7 20.9 0.00 0.00 0.00 37 1016.1
20260503212044 19 230 8.0 27.4 0.00 0.00 0.00 39 1016.3
20260503211611 19 205 17.7 27.4 0.00 0.00 0.00 38 1016.2
20260503211042 19 194 8.0 20.9 0.00 0.00 0.00 40 1016.4
20260503210547 19 209 12.9 20.9 0.00 0.00 0.00 39 1016.5
20260503210053 19 205 9.7 17.7 0.00 0.00 0.00 40 1016.6
20260503205543 19 209 6.4 17.7 0.00 0.00 0.00 40 1016.7
20260503205043 19 290 6.4 17.7 0.00 0.00 0.00 41 1016.8
20260503204552 19 280 6.4 24.1 0.00 0.00 0.00 38 1016.7
20260503204043 18 259 12.9 24.1 0.00 0.00 0.00 37 1016.8
20260503203543 19 244 9.7 16.1 0.00 0.00 0.00 37 1016.9
20260503203107 19 238 6.4 19.3 0.00 0.00 0.00 39 1017.0
20260503202544 19 259 11.3 19.3 0.00 0.00 0.00 37 1017.1
20260503202042 18 288 8.0 19.3 0.00 0.00 0.00 38 1017.1
20260503201549 18 228 11.3 19.3 0.00 0.00 0.00 39 1017.2
20260503201042 18 301 11.3 19.3 0.00 0.00 0.00 38 1017.4
20260503200542 18 233 8.0 16.1 0.00 0.00 0.00 41 1017.4
20260503200058 18 190 6.4 16.1 0.00 0.00 0.00 40 1017.5
20260503195543 18 192 9.7 17.7 0.00 0.00 0.00 43 1017.6
20260503195042 18 178 11.3 17.7 0.00 0.00 0.00 41 1017.9
20260503194555 18 181 4.8 24.1 0.00 0.00 0.00 39 1017.9
20260503194044 18 226 12.9 24.1 0.00 0.00 0.00 38 1018.1
20260503193543 18 175 6.4 14.5 0.00 0.00 0.00 42 1018.2
20260503193051 18 178 6.4 17.7 0.00 0.00 0.00 42 1018.2
20260503192540 18 188 11.3 17.7 0.00 0.00 0.00 45 1018.3
20260503192043 18 179 9.7 17.7 0.00 0.00 0.00 43 1018.4
20260503191553 18 227 8.0 12.9 0.00 0.00 0.00 40 1018.5
20260503191045 17 324 3.2 16.1 0.00 0.00 0.00 38 1018.6
20260503190541 18 202 9.7 17.7 0.00 0.00 0.00 44 1018.7
20260503190050 17 253 6.4 17.7 0.00 0.00 0.00 39 1018.8
20260503185542 18 286 8.0 16.1 0.00 0.00 0.00 42 1018.8
20260503185042 18 178 6.4 16.1 0.00 0.00 0.00 39 1018.8
20260503184552 17 185 6.4 16.1 0.00 0.00 0.00 43 1018.7
20260503184041 17 295 6.4 17.7 0.00 0.00 0.00 40 1018.9
20260503183543 17 254 11.3 19.3 0.00 0.00 0.00 43 1019.0
20260503183051 17 142 4.8 19.3 0.00 0.00 0.00 45 1019.1
20260503182543 17 160 3.2 12.9 0.00 0.00 0.00 41 1019.0
20260503182042 17 220 6.4 16.1 0.00 0.00 0.00 43 1019.1
20260503181601 17 219 4.8 16.1 0.00 0.00 0.00 43 1019.1
20260503181042 17 211 6.4 16.1 0.00 0.00 0.00 43 1019.2
20260503180543 17 214 6.4 16.1 0.00 0.00 0.00 45 1019.2
20260503180054 17 226 6.4 16.1 0.00 0.00 0.00 41 1019.4
20260503175543 17 180 8.0 16.1 0.00 0.00 0.00 40 1019.3
20260503175042 16 229 4.8 17.7 0.00 0.00 0.00 39 1019.5
20260503174551 16 240 9.7 17.7 0.00 0.00 0.00 40 1019.5
20260503174042 16 265 1.6 14.5 0.00 0.00 0.00 46 1019.6
20260503173542 16 111 3.2 14.5 0.00 0.00 0.00 43 1019.7
20260503173057 16 222 4.8 14.5 0.00 0.00 0.00 50 1019.6
20260503172542 16 360 9.7 14.5 0.00 0.00 0.00 41 1019.7
20260503172042 16 139 8.0 16.1 0.00 0.00 0.00 43 1019.8
20260503171554 16 176 8.0 16.1 0.00 0.00 0.00 43 1020.0
20260503171044 15 0 3.2 11.3 0.00 0.00 0.00 42 1020.1
20260503170544 16 226 6.4 32.2 0.00 0.00 0.00 49 1020.1
20260503150543 13 167 6.4 14.5 0.00 0.00 0.00 51 1021.1
20260503131047 9 0 0.0 0.0 0.00 0.00 0.00 89 1020.7
20260503130543 8 0 0.0 0.0 0.00 0.00 0.00 92 1020.7
20260503110542 2 0 0.0 0.0 0.00 0.00 0.00 95 1020.0